Location: Little Elm
(33.1626°N, 96.9375°W)
Time: 13:04:38
(UTC+00:00)

Cosmos 1515 Rocket - Pass Details

Date: 03 July 2022
Orbit: 604 x 630 km, 82.5° (Epoch: 17 August)

Event Time Altitude Azimuth Distance (km) Brightness Sun altitude
Rises 08:33:59 0° 10° (N) 2,891 8.1 -26.8°
Reaches altitude 10° 08:36:38 10° 25° (NNE) 1,977 7.1 -26.5°
Maximum altitude 08:40:04 22° 77° (ENE) 1,338 5.7 -26.1°
Enters shadow 08:42:28 15° 119° (ESE) 1,676 5.8 -25.9°
